Weather History for McCook, NE

Change the Weather History Date:

Friday, October 31, 2014

  Actual Average Record
Temperature  
Mean Temperature 38 °F 46 °F  
Max Temperature 48 °F 61 °F 88 °F (1968)
Min Temperature 28 °F 31 °F 14 °F (1991)
Degree Days  
Heating Degree Days 27    
Moisture  
Dew Point 23 °F    
Average Humidity 63    
Maximum Humidity 93    
Minimum Humidity 30    
Precipitation  
Precipitation 0.00 in 0.05 in 1.06 in (2000)
Month to date precipitation 0.27 1.79  
Year to date precipitation 22.90 20.94  
Sea Level Pressure  
Sea Level Pressure 30.49 in    
Wind  
Wind Speed 8 mph (East)    
Max Wind Speed 16 mph    
Max Gust Speed 24 mph    
Visibility 10 miles    
Events      
T = Trace of Precipitation, MM = Missing Value Source: NWS Daily Summary

Daily Weather History Graph

Daily Weather History Graph

Search for Another Location

Airport:

Trip Planner

Search our weather history database for the weather conditions in past years. The results will help you decide how hot, cold, wet, or windy it might be!

Date:

Astronomy

Oct. 31, 2014 Rise Set
Actual Time 8:10 AM CDT 6:40 PM CDT
Civil Twilight 7:42 AM CDT 7:08 PM CDT
Nautical Twilight 7:10 AM CDT 7:40 PM CDT
Astronomical Twilight 6:38 AM CDT 8:12 PM CDT
Moon 2:56 PM CDT (10/31) 1:01 AM CDT (10/31)
Length of Visible Light 11h 26m
Length of Day
10h 30m
First Quarter, 57% of the Moon is Illuminated
Oct 31
First Quarter
Nov 6
Full
Nov 14
Last Quarter
Nov 22
New
Nov 29
First Quarter

Hourly Weather History & Observations

Time (CDT) Temp. Windchill Dew Point Humidity Pressure Visibility Wind Dir Wind Speed Gust Speed Precip Events Conditions
12:53 AM 37.0 °F 31.0 °F 30.0 °F 76% 30.46 in 10.0 mi NE 8.1 mph - N/A   Clear
1:53 AM 35.1 °F 31.0 °F 28.9 °F 78% 30.48 in 10.0 mi NNE 4.6 mph - N/A   Clear
2:53 AM 30.0 °F 25.2 °F 27.0 °F 88% 30.50 in 10.0 mi North 4.6 mph - N/A   Clear
3:53 AM 28.9 °F 21.9 °F 26.1 °F 89% 30.51 in 10.0 mi NNW 6.9 mph - N/A   Clear
4:49 AM 30.2 °F 23.4 °F 28.4 °F 93% 30.49 in 9.0 mi North 6.9 mph - N/A   Mostly Cloudy
4:53 AM 30.0 °F 23.2 °F 28.0 °F 92% 30.51 in 9.0 mi North 6.9 mph - N/A   Mostly Cloudy
5:53 AM 32.0 °F 23.6 °F 28.9 °F 88% 30.52 in 9.0 mi NE 10.4 mph - N/A   Overcast
6:53 AM 32.0 °F 22.5 °F 28.0 °F 85% 30.55 in 10.0 mi NE 12.7 mph - N/A   Overcast
7:05 AM 32.0 °F 24.8 °F 28.0 °F 85% 30.52 in 10.0 mi NE 8.1 mph - N/A   Overcast
7:53 AM 32.0 °F 24.2 °F 28.0 °F 85% 30.57 in 10.0 mi NE 9.2 mph - N/A   Overcast
8:53 AM 30.9 °F 25.2 °F 26.1 °F 82% 30.59 in 10.0 mi NE 5.8 mph - N/A   Overcast
9:53 AM 32.0 °F 24.2 °F 26.1 °F 79% 30.61 in 10.0 mi East 9.2 mph - N/A   Overcast
10:53 AM 33.1 °F 26.1 °F 24.1 °F 70% 30.61 in 10.0 mi East 8.1 mph - N/A   Mostly Cloudy
11:12 AM 33.8 °F 26.4 °F 24.8 °F 70% 30.55 in 10.0 mi East 9.2 mph - N/A   Partly Cloudy
11:53 AM 36.0 °F 33.3 °F 24.1 °F 62% 30.58 in 10.0 mi Variable 3.5 mph - N/A   Clear
12:53 PM 39.9 °F 33.9 °F 23.0 °F 51% 30.56 in 10.0 mi ESE 9.2 mph - N/A   Clear
1:53 PM 41.0 °F 34.7 °F 21.0 °F 45% 30.52 in 10.0 mi SE 10.4 mph - N/A   Clear
2:53 PM 45.0 °F 40.1 °F 21.0 °F 39% 30.47 in 10.0 mi SSE 9.2 mph - N/A   Clear
3:53 PM 46.9 °F - 19.9 °F 34% 30.44 in 10.0 mi SE 13.8 mph - N/A   Clear
4:53 PM 48.0 °F - 18.0 °F 30% 30.41 in 10.0 mi ESE 15.0 mph 24.2 mph N/A   Clear
5:53 PM 45.0 °F 37.9 °F 17.1 °F 33% 30.40 in 10.0 mi SE 16.1 mph 21.9 mph N/A   Clear
6:53 PM 39.9 °F 33.9 °F 15.1 °F 36% 30.40 in 10.0 mi SE 9.2 mph - N/A   Clear
7:53 PM 35.1 °F 27.9 °F 16.0 °F 46% 30.41 in 10.0 mi SE 9.2 mph - N/A   Clear
8:53 PM 35.1 °F 28.6 °F 12.9 °F 40% 30.40 in 10.0 mi ESE 8.1 mph - N/A   Clear
9:53 PM 34.0 °F 26.6 °F 12.9 °F 42% 30.39 in 10.0 mi SE 9.2 mph - N/A   Clear
10:53 PM 33.1 °F 24.4 °F 12.9 °F 43% 30.37 in 10.0 mi SE 11.5 mph - N/A   Clear
11:53 PM 30.9 °F 22.8 °F 15.1 °F 52% 30.35 in 10.0 mi ESE 9.2 mph - N/A   Clear